Погода в Выборге

Погода в Выборге : погода сейчас, прогноз погоды и архив. Всё, что Вы хотите узнать о погоде в Выборге!

Хотите узнать прогноз погоды в Выборге? Тогда Вам сюда: Погода в Выборге

Поиск расширенной информации на нашем сайте:

Полезная информация:

Другие новости

Новости СМИ2

Главная страница сайта

Новости сайта

03.07.2017

Напоминаем, что на нашем специализированном сайте Метеоцентр.Азия вы можете получить высокодетализированные автоматические прогнозы погоды по пунктам России, СНГ и мира в авиационном формате (включающие направление и скорость ветра, видимость, явления погоды, количество и форму облачности, нижнюю и верхнюю границу облачности).

Рекомендуем:

Погода в Выборге - сегодня

Время (UTC), дата Ветер
(°,м/с) 
Видим.   Явления Облачность Т
(°С)
Тd
(°С)
f(%) Тe
(°С)
Pmin
(гПа)
dP
(гПа)
Po
(мм)
O2
(г/м3)
Тmin Tmax R s Состояние
почвы
09 15.09.19 160 (Ю) 11-12{15}  4000 м  ливневой дождь  10/9 300 м кучево-дожд., средняя 
[Cb cap|As op]
+9.7 +8.5 92 +7  1000  -5.9  749  290           
12 15.09.19 180 (Ю) 10-11{14}  4000 м  ливневой дождь  10/9 330 м кучево-дожд., средняя 
[Cb cap|As op]
+11 +9.8 92 +10  993.2  -6.7  744  286           
15 15.09.19 230 (ЮЗ) 12-13{19}  4000 м  ливневой дождь  10/9 270 м кучево-дожд., средняя 
[Cb cap|As op]
+13.2 +12.1 93 +15  986.1  -7.1  738  281      29     
18 15.09.19 260 (З) 6{16}  10 км  {ливн. осадки}  3/0 средняя 
[Ac trans]
+9.6 +7.9 89 +8  986.6  0.5  739  286    +13.3  30     
21 15.09.19 270 (З) 6{11}  20000 м    3/0 средняя, верхняя 
[Ac trans|Ci fib]
+9.4 +7.3 87 +8  987  0.4  739  287           
00 16.09.19 260 (З) 6{10}  20000 м    3/0 средняя 
[Ac trans]
+8.7 +7 89 +7  986.7  -0.3  739  287           
03 16.09.19 270 (З) 6{11}  20000 м    3/0 средняя 
[Ac trans]
+8 +6.3 89 +6  986.2  -0.5  739  288  +7.9       
06 16.09.19 280 (З) 6{10}  20000 м    8/4 600 м средняя, верхняя 
[Cu med, cong|Ac trans|Ci fib]
+8.2 +6 86 +6  985.8  -0.4  738  288  +7.7         
09 16.09.19 290 (З) 20000 м  {ливн. осадки}  9/8 600 м кучево-дожд., средняя 
[Cb cap|Ac trans]
+10 +7.3 83 +10  986.7  0.9  739  286           
12 16.09.19 330 (СЗ) 4000 м  слаб. ливневой дождь  10/9 360 м кучево-дожд., средняя 
[Cb cap|Ac As]
+9.6 +8.6 93 +9  989.4  2.7  741  287           
15 16.09.19 330 (СЗ) 20000 м  {ливн. осадки}  10/6 600 м кучево-дожд., средняя 
[Cb cap|Ac trans]
+9.8 +6.9 82 +10  991.4  742  288         
18 16.09.19 340 (С) 10 км  {ливн. осадки}  10/3 600 м средняя 
[Cu med, cong|Ac trans]
+7.9 +7 94 +9  992.7  1.3  743  290    +10.6     
21 16.09.19 320 (СЗ) 20000 м    8/0 средняя, верхняя 
[Ac trans|Cc]
+6.5 +5.6 94 +7  993.4  0.7  744  292           
00 17.09.19 330 (СЗ) 20000 м    9/0 средняя 
[Ac trans]
+5.9 +4.7 92 +6  993.6  0.1  744  293           
03 17.09.19 320 (СЗ) 20000 м    10/9 480 м кучево-дожд., средняя 
[Cb cap|Ac trans]
+6.2 +5.1 93 +7  993.6  744  292  +5.8         
06 17.09.19 310 (СЗ) 20000 м    10/10 360 м 
[Sc diur, vesp]
+7 +5.4 90 +7  994.1  0.6  744  292  +5.8         
09 17.09.19 320 (СЗ) 10 км  слаб. дождь  10/8 210 м средняя 
[Frnb|As op]
+8.8 +7.3 90 +9  995.4  1.3  745  290           
12 17.09.19 320 (СЗ) 20000 м  {дождь}  9/6 1140 м средняя, верхняя 
[Cu hum|Ac trans|Ci fib]
+10.2 +7.9 86 +10  996.1  0.7  746  288           
15 17.09.19 020 (С) 20000 м  в посл. час ливневой дождь  9/8 1200 м кучево-дожд., средняя 
[Cb cap|Ac As]
+9.7 +7.6 87 +10  996.7  0.5  746  289         
18 17.09.19 020 (С) 10 км  {ливн. осадки}  9/8 1320 м кучево-дожд., средняя 
[Cb cap|Ac trans]
+8.4 +6.7 89 +8  997.5  0.8  747  291    +11.2     
21 17.09.19 020 (С) 20000 м    8/0 средняя 
[Ac trans]
+7.2 +5.6 90 +7  998.1  0.6  747  292           
00 18.09.19 020 (С) 10 км    10/8 1380 м средняя 
[Sc|Ac trans]
+7.2 +5.4 88 +7  998.8  0.7  748  293           
03 18.09.19 020 (С) 20000 м    10/0 средняя 
[Ac trans]
+7 +5.2 88 +6  999.8  749  293  +6.6         
06 18.09.19 030 (СВ) 20000 м    8/4 1000 м средняя, верхняя 
[Sc|Ac trans|Ci fib]
+7.4 +4.9 84 +7  1001.5  1.7  750  293  +6.4         
09 18.09.19 050 (СВ) 20000 м    5/5 600 м кучево-дожд. 
[Cb cap]
+9.8 +4.7 71 +9  1003.1  1.6  751  291           
Время (UTC), дата Ветер
(°,м/с) 
Видим.   Явления Облачность Т
(°С)
Тd
(°С)
f(%) Тe
(°С)
Pmin
(гПа)
dP
(гПа)
Po
(мм)
O2
(г/м3)
Тmin Tmax R s Состояние
почвы

Для получения пояснительной информации подведите курсор к названию столбца.

ПОГОДА в Выборге - архив

Всё, что Вы хотите узнать о погоде в Выборге - удобно и подробно!

Выберите нужную дату (начиная с 1 января 2018* года) и нажмите кнопку "Найти".
Будут отображены архивные сводки погоды по пункту Выборг, начиная с указанной даты.


Отображать данные в формате CSV (для использования в таблицах Excel)


Внимание! Наш архив погоды предназначен исключительно для личного некоммерческого использования в познавательных целях. Если Вам необходимы официальные справки о состоянии погоды (для производственных, юридических, коммерческих и т.п. целей), обращайтесь в органы Росгидромета.

*Примечание: данная дата относится к архиву по метеостанциям СССР (Россия, СНГ, Балтия).
Архив по метеостанциям Зарубежной Европы и Азии (кроме Китая) хранится 10 дней, по другим регионам земного шара (Китай, Африка, Америка, Австралия, Океания) - 1 день.

Выборг - район местоположения метеостанции


Название, широта, долгота, высота метеостанции:
Выборг 60.7°ш. 28.7°д. 13 м над ур. моря [Российская Федерация]

Дополнительная информация

В oтличие oт бoльшинства пoгoдных сайтoв мы публикуем пoдрoбную метеoинфoрмацию в детальнoм прoфессиoнальнoм фoрмате.

Характеристики температуры и влажнoсти вoздуха измеряются на высoте 2 м в тени вдали oт зданий и деревьев.
Скoрoсть ветра измеряется на высoте 10 м (на урoвне рoста челoвека скoрoсть ветра ниже в 1.5-2 раза). Если метеoстанция нахoдится в гoрoде или в лесу, тo скoрoсть ветра занижена на 2-4 м/с пo сравнению с oткрытым местoм. Скoрoсть ветра над акватoриями крупных рек и oзёр, а также на вершинах хoлмoв на 2-5 м/с выше, чем в oбычных услoвиях.
Атмoсфернoе давление в разных тoчках местнoсти мoжет значительнo oтличаться oт давления на метеoстанции, в зависимoсти oт услoвий рельефа (при пoдъёме на 10 м давление пoнижается примернo на 1 мм рт.ст.).